Location: Bothwell
(42.3833°S, 147.0000°E)
Time: 21:14:34
(UTC+11:00)

CUTE-I - Pass Details

Date: 29 September 2022
Orbit: 810 x 823 km, 98.7° (Epoch: 29 November)

Event Time Altitude Azimuth Distance (km) Brightness Sun altitude
Rises 18:59:41 0° 171° (S) 3,393 ? -8.8°
Reaches altitude 10° 19:02:04 10° 174° (S) 2,454 ? -9.3°
Maximum altitude 19:07:24 59° 251° (WSW) 961 ? -10.2°
Drops below altitude 10° 19:12:41 10° 330° (NNW) 2,429 ? -11.2°
Sets 19:15:03 0° 333° (NNW) 3,355 ? -11.6°
